Wind_Speed
3 5 6 4 1 3 4 4 5 5 4 5 5 5 5 7 4 3 5 3 1 3 1 4 3 4 3 3 2 1 1 2 2 2 2 4 4 5 6 6 6 7 7 9 11 12 12 12 12 13 13 13 15 15 14 13 12 11 11 11 11 10 8 8 7 7 6 5 4 3 1 1 2 2 4 5 5 6 6 7 8 9 10 10 10 10
3 7 5 0 3 3 4 4 4 4 3 4 5 6 5 6 2 5 5 4 3 5 1 5 3 4 3 2 2 2 3 2 1 1 2 4 5 5 6 7 7 7 8 9 11 12 13 13 13 14 14 14 16 15 14 14 14 13 12 12 12 10 8 7 7 6 5 4 3 1 1 2 3 3 4 5 5 6 7 8 8 9 10 10 11 10
6 8 3 3 2 2 3 4 5 6 5 5 5 6 6 4 1 4 6 6 4 5 2 6 4 3 4 3 3 4 4 3 2 1 1 3 5 6 7 8 8 9 9 10 10 12 13 13 14 14 14 14 15 14 13 13 13 12 11 11 11 9 8 7 6 6 5 4 3 2 1 1 2 3 4 4 5 6 6 7 7 7 8 8 9 9
6 3 3 2 1 4 6 4 6 7 6 7 6 7 7 3 3 2 5 6 4 4 2 6 5 4 6 5 5 5 4 4 4 3 2 3 4 6 7 7 9 10 10 10 10 11 13 13 13 13 12 12 11 11 10 10 9 9 10 10 10 9 7 6 6 6 5 5 4 3 2 2 1 1 3 4 4 5 6 6 6 6 6 7 8 9
8 3 5 2 4 6 8 6 8 8 7 8 7 8 9 4 4 4 1 1 4 5 5 6 6 5 7 8 7 6 6 6 6 6 5 4 4 4 6 6 8 9 8 9 10 10 11 12 12 12 12 11 10 9 8 8 8 9 10 10 10 9 8 7 7 6 6 5 4 3 2 2 2 2 3 4 4 5 6 7 7 8 8 9 10 11
5 3 2 6 6 7 9 8 8 7 7 8 7 7 7 6 5 3 2 4 5 5 7 8 7 4 8 10 9 8 8 8 8 8 8 7 7 6 6 7 7 7 7 8 9 9 10 11 12 13 12 11 11 9 8 8 9 10 10 10 9 8 8 7 8 8 7 7 6 5 4 4 4 4 4 4 5 6 6 7 8 8 9 9 11 12
1 2 1 6 6 7 9 8 5 4 8 6 0 0 3 5 7 6 5 5 6 6 5 9 8 4 5 11 11 10 10 11 10 10 10 9 9 9 8 8 8 8 8 7 9 9 10 10 11 11 11 11 10 9 8 8 9 10 10 9 8 8 7 7 8 9 8 7 6 6 5 5 4 4 4 4 4 5 6 7 8 8 8 9 10 10
3 3 4 5 6 7 8 5 3 4 9 2 5 4 2 6 8 8 8 6 7 7 4 10 9 7 5 7 12 12 11 12 12 12 13 12 12 11 9 8 8 9 9 9 9 9 8 9 10 10 10 10 9 8 7 8 8 9 9 9 8 8 7 8 10 10 9 7 6 6 5 5 4 4 3 3 4 4 5 6 7 7 8 9 9 10
3 4 4 5 7 6 3 2 3 4 7 2 5 4 5 7 9 9 8 8 8 7 7 9 9 8 5 5 10 11 11 12 14 15 14 14 14 13 11 10 9 9 9 9 9 8 8 8 8 8 9 9 8 7 7 7 8 8 8 8 8 7 7 9 10 10 9 8 7 6 5 5 4 3 3 3 3 3 4 4 5 6 7 8 9 10
2 2 3 5 6 3 2 3 2 5 5 3 4 5 6 8 9 9 8 8 7 7 10 8 9 7 4 6 9 8 9 12 13 14 14 15 15 13 12 11 11 9 8 8 9 9 7 7 7 7 8 8 7 7 7 7 6 6 6 6 6 6 7 8 9 9 8 7 6 5 5 4 3 3 2 2 2 3 3 4 5 5 6 6 7 8
2 3 1 4 4 4 2 1 2 4 5 4 5 8 8 9 9 7 7 6 7 8 7 4 9 7 5 5 8 7 8 10 11 12 13 15 16 15 13 12 12 10 9 9 9 8 8 7 6 6 7 7 6 6 6 6 5 5 5 5 6 6 7 7 7 7 6 5 4 4 3 3 3 2 2 2 3 3 4 4 5 5 6 6 6 7
6 6 4 3 1 2 3 5 5 5 5 5 7 7 7 7 6 6 6 5 7 6 2 5 6 8 6 3 6 8 7 7 10 13 16 18 17 16 13 12 13 11 11 10 9 9 8 7 7 7 7 7 7 6 6 5 5 4 4 4 5 6 6 5 5 4 3 2 2 1 1 2 2 2 3 4 4 5 5 6 6 6 6 6 6 6
6 7 6 6 3 3 6 6 6 7 6 6 6 6 6 6 4 5 5 4 6 3 6 5 3 5 7 4 3 8 8 7 9 12 15 18 18 16 15 14 12 12 12 11 10 9 8 8 8 8 8 7 6 5 5 4 3 3 3 3 3 3 3 3 2 2 2 1 1 1 1 2 3 3 4 5 6 6 6 7 7 8 8 8 8 8
4 5 9 8 5 5 7 6 4 4 4 5 4 4 5 6 6 6 6 6 6 1 5 5 1 5 8 2 3 5 5 5 7 9 13 17 18 17 16 15 13 13 13 11 10 10 9 8 9 8 7 6 5 4 3 2 1 1 0 0 1 0 1 1 1 2 2 2 2 3 3 4 5 6 6 7 8 8 8 8 9 10 10 10 10 10
7 3 7 7 4 6 8 5 5 4 3 4 3 4 7 5 6 7 6 6 7 5 1 4 3 6 5 3 6 4 3 2 5 8 11 14 16 15 15 15 14 14 13 11 10 10 9 9 9 7 6 5 5 4 3 3 3 3 3 4 4 5 4 4 4 5 5 6 6 6 7 7 8 8 9 9 10 10 10 10 11 12 12 12 13 13
8 6 4 5 2 4 5 1 2 5 5 2 1 5 5 3 4 6 7 7 7 8 7 5 5 5 1 6 6 5 4 4 6 8 11 14 15 15 14 15 14 13 13 11 10 10 9 9 9 8 7 6 6 5 6 6 6 6 7 7 8 9 8 8 8 8 9 9 9 9 10 11 11 11 11 12 13 13 13 13 14 15 15 15 15 15
7 4 7 6 3 4 2 0 2 5 4 1 3 5 0 3 5 7 6 2 2 7 8 6 7 6 3 6 6 6 5 7 8 10 12 14 16 16 14 14 14 13 13 12 10 9 9 9 9 9 9 8 8 8 8 9 9 9 9 9 11 11 12 12 12 13 13 12 13 13 14 14 14 14 14 15 15 16 16 16 17 17 17 17 17 17
5 6 6 8 7 5 2 2 4 5 5 4 4 2 3 0 4 5 5 3 4 8 7 6 9 8 6 3 6 8 8 9 10 11 12 14 16 16 15 14 15 14 13 12 11 10 9 10 10 10 11 11 11 10 11 11 11 11 11 11 12 13 14 15 15 16 16 16 17 17 17 17 18 18 17 17 18 18 18 18 19 19 19 19 18 17
3 8 4 7 6 6 6 5 6 6 5 6 4 2 1 5 4 4 4 5 7 9 7 9 11 8 8 5 6 9 10 10 11 12 13 15 17 16 15 15 15 14 13 11 11 10 9 10 11 12 12 12 13 13 13 13 13 12 12 13 14 16 17 18 18 19 19 19 19 20 20 21 21 22 21 21 20 19 20 21 21 21 22 22 21 20
2 7 4 4 4 4 5 7 7 6 6 4 4 4 4 5 5 5 5 5 7 8 8 10 10 7 6 4 3 4 6 10 11 12 13 16 17 16 15 15 15 14 13 11 11 10 9 10 12 12 13 13 14 14 14 14 13 14 14 15 17 18 19 20 20 21 21 21 22 23 23 24 24 25 26 26 25 24 24 24 25 25 24 24 23 23
3 5 5 3 4 4 6 5 6 6 4 5 6 6 5 4 4 5 7 7 7 8 8 8 9 7 2 1 3 3 3 6 9 11 11 13 15 16 15 14 14 14 13 11 10 9 9 10 11 11 12 13 14 14 14 14 14 15 15 15 15 15 16 17 18 19 20 22 23 25 26 26 27 27 28 29 29 29 29 29 29 29 27 27 26 26
4 4 7 6 4 7 5 1 2 4 4 5 6 6 7 6 5 6 8 9 7 8 9 8 10 8 0 4 2 2 2 3 5 7 8 9 12 15 15 14 14 13 13 11 10 9 8 8 9 10 10 11 13 13 14 14 13 12 12 12 12 12 13 14 16 17 19 20 22 23 25 27 28 28 29 31 31 32 32 32 31 30 29 29 29 28
1 4 8 9 9 9 2 5 3 3 4 8 8 8 9 7 7 8 9 7 6 8 9 8 10 7 3 5 2 2 2 1 1 3 5 5 7 11 13 14 13 13 12 11 10 8 7 7 7 8 9 10 11 11 11 10 10 10 11 11 12 12 14 15 17 18 19 20 21 23 24 26 28 29 30 31 31 32 33 32 32 31 30 30 29 29
1 4 8 8 9 10 4 4 2 3 5 8 9 9 9 8 9 9 8 7 6 8 8 7 10 7 4 4 2 3 4 2 3 3 3 4 4 7 11 12 13 13 12 11 9 7 6 6 7 8 9 9 9 9 8 9 10 11 11 12 14 15 17 18 19 20 22 23 24 24 25 26 27 28 29 30 30 31 31 31 31 30 31 31 31 30
3 5 7 7 8 8 7 5 5 5 6 7 7 7 8 11 10 7 6 6 6 11 11 9 10 7 3 5 3 4 5 4 4 4 3 3 4 6 8 10 12 12 11 10 9 7 7 7 7 9 9 8 8 8 8 9 11 13 14 15 16 18 19 20 21 22 23 24 25 26 26 27 27 28 29 30 31 32 33 32 31 31 31 32 33 33
5 7 7 7 9 8 8 6 3 1 4 5 6 7 9 12 12 8 7 7 8 11 12 11 11 10 3 7 7 6 6 6 5 5 4 3 4 6 7 8 10 10 10 10 9 7 6 6 6 7 7 8 9 9 10 12 14 16 17 18 18 19 20 21 21 22 23 24 25 25 26 27 28 28 30 31 32 33 34 34 34 34 34 34 36 36
6 8 10 11 13 12 13 12 7 6 8 9 10 11 11 13 14 11 9 9 9 9 11 12 13 15 12 9 10 10 7 7 6 5 5 5 5 6 7 8 9 9 9 9 7 6 5 5 5 6 6 8 10 11 13 15 16 18 19 19 20 20 20 21 21 21 22 23 24 25 26 28 29 29 30 31 32 32 32 33 33 33 34 34 35 36
6 10 13 16 18 17 19 19 16 14 15 15 16 16 15 14 16 15 12 12 10 9 12 15 14 16 16 14 14 14 9 6 6 6 6 6 7 7 8 9 10 9 9 7 6 5 4 4 4 5 6 8 11 13 15 17 19 19 20 20 20 20 20 20 20 21 23 23 24 25 27 28 28 28 29 29 30 30 30 31 31 32 33 33 34 35
7 11 13 16 19 20 20 20 19 18 17 16 18 19 19 18 18 18 17 16 13 12 16 17 17 19 18 16 17 15 9 6 5 5 5 6 7 8 9 10 10 10 8 7 5 4 4 4 4 5 8 10 12 15 17 18 18 19 19 19 19 20 19 19 21 23 24 24 25 26 26 27 27 27 28 28 29 30 30 31 31 31 32 33 33 34
6 10 14 17 19 20 21 21 21 20 20 21 21 21 22 21 22 22 20 19 19 20 22 22 23 23 19 18 19 13 5 5 5 4 6 7 8 9 10 10 9 8 7 5 4 3 3 4 5 7 9 12 14 16 17 17 18 18 18 19 19 19 19 21 23 24 24 25 26 26 26 27 27 28 28 29 30 30 31 31 31 31 32 33 33 34
6 9 13 14 14 18 21 21 21 22 23 24 25 25 24 23 23 23 21 20 19 21 23 24 24 22 17 16 14 6 3 5 5 6 8 8 9 9 9 9 7 6 5 3 3 2 3 5 7 9 11 13 15 16 17 17 17 17 18 19 19 19 20 22 24 24 24 25 26 26 27 28 28 28 29 29 30 31 31 31 31 32 32 32 33 34
8 8 11 12 12 16 19 20 23 25 25 25 28 28 25 22 21 20 19 18 17 19 22 21 19 17 11 6 5 4 5 6 7 7 8 8 8 9 8 8 6 4 3 2 2 4 6 8 9 10 12 14 16 16 16 17 17 18 18 19 19 20 22 23 23 23 24 25 26 27 27 28 28 29 29 30 30 31 31 31 32 33 33 33 34 35
10 10 10 12 12 15 19 21 22 22 21 20 21 22 22 23 24 22 19 19 20 19 17 16 16 12 4 5 7 6 7 7 7 7 6 7 8 7 7 6 4 3 1 2 4 6 8 9 10 12 14 15 16 16 16 17 18 19 19 19 20 22 23 23 23 24 25 26 26 27 28 28 29 29 30 31 31 32 32 32 33 34 33 34 34 35
13 14 12 11 11 14 20 20 16 16 17 14 12 15 18 22 24 23 21 21 22 19 16 17 15 6 5 7 7 7 7 7 6 5 4 5 5 5 5 4 2 1 2 4 6 8 8 10 12 13 14 15 16 16 17 17 18 19 20 21 22 22 23 23 24 25 26 27 27 28 28 28 30 31 31 32 32 33 33 34 34 33 32 32 34 34
15 15 12 10 11 12 15 16 13 14 14 11 10 13 16 19 21 21 22 22 22 21 21 22 20 11 7 7 6 6 7 6 6 6 5 4 4 4 4 3 2 1 3 6 7 8 9 11 13 14 14 15 16 16 17 17 19 20 22 22 23 23 23 24 25 26 27 28 28 28 29 30 31 32 32 32 33 34 34 34 34 33 32 32 33 33
16 14 11 11 11 11 11 12 13 14 13 13 12 9 7 11 15 17 19 19 20 20 20 21 21 14 8 7 6 6 7 7 6 6 6 6 5 3 3 2 1 3 5 7 8 9 10 12 13 14 15 15 15 17 18 19 20 22 22 23 23 24 24 25 26 27 27 27 28 28 29 30 31 32 32 33 34 34 34 35 35 34 34 33 33 34
18 15 13 12 11 10 12 14 15 16 17 18 16 10 8 11 14 13 13 15 18 19 18 18 17 10 8 9 8 7 8 6 5 6 8 7 6 4 2 1 2 4 6 8 9 10 11 12 13 14 15 16 17 19 20 21 21 22 23 23 23 24 24 25 25 26 26 27 28 28 29 29 30 31 32 33 34 34 35 35 36 35 35 34 34 34
18 16 15 13 10 10 13 14 15 16 15 16 16 12 11 12 12 12 12 13 15 14 14 14 12 10 11 10 9 9 7 6 6 6 8 8 5 4 3 3 4 6 7 8 10 11 12 12 13 14 15 18 19 20 20 20 21 22 22 23 23 23 24 24 24 25 26 27 27 27 28 29 29 30 32 33 34 35 35 35 36 35 34 32 31 32
19 16 14 14 12 12 14 14 13 12 11 13 12 6 8 7 6 8 11 11 8 8 9 10 10 11 11 11 11 9 6 6 5 4 8 6 4 3 3 4 5 6 7 9 10 12 12 13 13 15 17 18 19 19 19 20 21 21 21 22 22 23 23 24 24 25 26 27 27 28 28 28 29 31 33 34 34 35 34 34 35 34 33 33 33 35
15 12 12 14 14 13 14 14 12 10 10 10 6 7 8 6 7 8 10 7 1 4 5 8 10 11 11 10 10 8 6 4 0 5 7 5 3 3 3 4 5 6 8 10 11 11 12 13 14 16 17 17 18 18 19 20 20 21 21 22 23 23 23 24 26 27 27 28 28 28 28 29 30 32 33 33 34 33 32 33 35 35 36 37 37 37
12 10 11 12 13 14 15 14 11 10 9 7 6 9 9 9 8 9 8 1 4 4 4 7 10 9 9 10 7 5 2 2 5 5 4 2 1 2 3 4 5 7 9 10 11 11 12 14 15 16 16 16 17 18 19 20 20 21 22 23 24 24 24 26 27 28 28 28 28 28 29 28 29 31 32 32 33 33 32 33 36 38 37 36 35 35
10 9 10 11 11 12 12 12 12 12 6 6 7 6 7 8 7 5 1 3 3 5 6 7 8 8 7 7 4 2 4 5 4 2 1 1 2 3 4 5 7 9 10 11 11 12 13 14 14 15 16 16 18 18 19 20 21 22 22 23 24 25 27 27 27 27 27 28 28 28 28 28 29 31 32 31 32 33 34 35 36 36 33 30 29 30
9 9 9 9 9 9 10 12 12 9 0 7 7 4 3 5 2 2 4 2 3 6 7 6 7 7 5 4 3 3 3 2 1 0 1 2 3 4 5 7 8 9 10 12 12 13 14 14 14 15 16 17 18 18 18 20 21 22 22 23 24 25 26 26 26 27 27 27 27 27 27 28 30 31 30 30 32 33 34 33 32 30 28 25 24 25
7 7 9 8 7 8 10 8 6 3 4 5 2 1 2 3 4 4 2 2 3 4 4 5 5 5 4 3 2 2 2 2 2 2 3 4 4 5 6 7 9 10 12 13 13 13 12 13 14 15 16 17 18 17 18 19 20 21 22 23 23 24 24 25 26 26 26 26 26 27 27 28 30 29 28 30 33 33 30 28 25 26 26 24 24 25
5 5 7 7 6 8 8 4 1 1 1 4 4 4 5 5 4 3 3 2 2 2 3 4 4 5 5 4 4 5 4 3 3 3 4 5 5 6 7 9 11 12 13 13 12 11 11 13 14 16 16 17 17 17 18 19 20 21 22 23 23 24 24 25 25 25 25 25 25 27 28 28 29 28 27 31 32 29 26 25 23 23 25 25 26 27
10 9 8 7 8 10 8 4 3 3 0 3 4 3 3 3 2 1 1 1 3 4 4 4 5 7 7 7 6 5 5 5 5 6 6 6 7 8 9 10 12 12 13 12 10 10 11 13 14 15 16 16 17 17 18 18 19 21 22 23 23 24 24 24 24 24 25 25 26 28 27 28 29 29 29 32 32 28 27 28 26 24 25 26 27 28
10 9 8 8 9 9 5 2 2 1 1 2 3 2 3 3 1 2 3 4 5 6 7 6 6 6 7 7 6 6 6 6 7 8 7 7 8 8 9 10 10 11 11 10 9 10 12 13 13 14 16 17 18 18 18 19 19 21 23 24 23 22 23 23 23 24 24 25 27 28 26 26 28 30 30 31 31 30 29 29 28 26 26 27 28 28
6 8 8 8 9 8 6 2 2 2 1 3 3 2 3 4 5 5 5 4 5 7 8 7 6 6 6 6 6 6 6 6 7 8 7 7 8 8 8 9 10 10 9 8 9 10 11 12 13 14 16 17 18 18 18 19 20 21 22 23 22 21 22 22 22 22 23 25 27 26 24 25 27 29 30 30 29 29 28 27 27 27 29 30 30 30
8 7 7 7 9 9 7 4 3 4 3 4 6 5 4 4 5 6 6 5 5 6 7 7 7 7 6 6 6 6 6 7 7 7 7 8 7 7 8 8 9 9 8 8 9 10 10 12 13 15 16 17 17 18 18 19 20 21 21 21 21 20 21 21 21 22 23 25 24 22 22 24 25 26 28 29 28 28 28 28 28 29 31 35 38 39
10 9 8 7 8 8 4 1 1 2 2 3 4 5 4 3 4 6 7 7 7 7 7 7 8 8 7 7 6 6 6 7 6 6 7 7 7 7 8 8 7 7 6 8 9 9 10 12 13 15 16 16 16 18 19 19 20 21 21 21 20 20 20 20 20 21 22 22 21 21 22 23 23 24 27 28 28 29 31 33 32 30 29 35 42 45
11 11 10 9 10 8 3 1 2 4 5 4 4 4 4 4 5 7 8 8 8 8 8 8 8 8 7 7 7 6 6 6 5 5 6 7 7 7 7 6 6 6 6 8 9 9 11 12 13 14 16 16 16 18 19 19 20 21 21 21 20 19 19 19 19 19 20 20 21 23 23 22 22 24 25 26 27 28 30 32 33 32 32 36 41 44
Wind_Direction
267 253 227 240 301 11 349 326 316 325 315 282 270 267 273 276 277 104 125 134 354 292 70 83 103 115 109 99 96 90 153 199 175 156 137 125 127 112 106 102 97 101 108 119 122 119 119 117 116 113 110 110 107 107 109 111 112 113 112 107 99 94 94 91 85 86 88 84 81 73 47 357 335 311 294 283 279 278 279 284 283 278 276 273 272 268
245 256 236 158 2 356 326 306 293 281 268 262 266 272 269 264 260 106 134 160 198 264 178 132 163 138 137 142 145 189 202 199 179 140 134 144 138 119 125 130 125 127 127 127 125 123 121 119 118 114 113 111 107 107 109 109 110 110 107 99 93 90 86 83 81 80 76 70 68 49 345 320 317 311 302 295 296 294 288 290 291 287 284 279 277 275
225 247 208 108 10 305 276 273 257 254 255 255 262 272 273 279 303 121 139 152 187 266 207 171 203 166 159 175 179 201 207 204 200 155 181 188 161 139 144 149 148 144 137 135 132 128 126 123 122 118 113 109 106 110 111 110 111 107 101 94 91 90 83 77 78 80 77 69 68 60 351 327 325 311 307 306 305 304 300 298 299 296 291 287 284 283
242 249 99 102 302 268 255 237 239 252 250 250 257 270 277 298 297 222 138 134 177 271 251 193 218 197 167 177 188 197 197 194 200 194 202 220 193 157 155 159 156 150 142 138 132 128 128 126 123 118 113 110 109 111 111 111 108 99 96 95 92 91 85 80 80 82 82 75 72 68 56 50 32 331 326 325 316 316 317 312 310 310 308 305 297 291
269 24 56 289 264 264 265 243 240 255 259 253 245 263 284 303 288 279 48 106 198 225 212 199 235 226 188 192 189 179 185 186 189 195 191 203 210 174 157 163 158 150 144 138 130 126 124 119 115 112 111 110 108 105 103 102 99 95 94 92 89 87 82 77 77 78 77 71 63 55 49 51 52 37 11 356 339 328 322 316 312 309 307 304 298 293
268 53 27 276 262 257 263 255 247 257 275 270 240 247 282 301 286 265 283 285 262 238 184 195 267 259 179 196 191 171 184 189 188 196 194 193 202 197 181 175 165 149 141 135 129 125 120 115 112 109 108 107 104 99 96 93 93 93 90 86 86 84 81 78 76 75 73 70 61 52 48 44 39 39 35 18 357 342 334 329 323 317 310 305 301 297
248 110 249 276 276 259 257 256 234 236 270 278 152 221 274 280 275 261 262 262 278 294 171 190 268 297 184 198 188 174 188 192 193 200 200 200 202 202 192 179 171 158 146 139 133 128 123 122 117 112 110 109 107 104 99 94 90 88 85 86 88 87 87 86 80 78 76 73 69 64 60 52 44 42 38 21 2 345 336 332 329 327 323 318 313 307
184 206 227 256 268 259 255 249 159 215 263 289 61 35 283 265 268 269 270 254 268 294 221 203 238 273 259 197 172 175 189 194 199 204 201 202 203 199 194 181 170 162 154 150 142 134 129 125 119 116 115 114 113 112 105 97 90 89 90 93 97 97 97 92 85 82 81 81 80 76 73 66 58 51 39 18 7 352 338 334 330 327 324 322 319 314
158 248 258 263 263 261 279 43 102 225 258 20 42 344 288 274 273 271 271 266 268 277 261 225 212 251 272 147 154 178 196 203 204 205 202 201 200 195 192 183 173 166 162 157 148 141 135 128 123 121 120 116 115 112 105 102 100 103 108 111 112 111 105 96 89 87 88 90 88 81 77 71 63 53 37 16 7 359 347 340 336 333 327 323 319 313
73 329 316 278 271 286 8 63 117 241 266 19 358 289 265 257 256 256 258 269 267 255 269 244 187 232 272 149 161 187 207 217 207 202 203 198 195 192 188 182 176 172 169 164 155 148 143 137 133 127 124 120 115 112 110 114 122 131 136 135 127 119 107 97 93 93 92 91 88 84 81 76 68 56 29 1 349 346 341 332 331 332 331 328 324 318
118 97 301 257 282 338 345 227 201 252 286 315 285 266 259 246 236 239 247 261 265 249 256 216 180 230 274 173 175 188 208 220 203 193 195 193 191 189 186 183 180 177 175 171 163 157 152 148 147 142 136 131 125 125 129 136 143 144 139 131 118 104 97 92 91 93 92 90 90 88 87 75 56 35 0 339 327 324 321 315 314 314 315 316 318 319
191 193 199 183 234 308 260 232 205 218 258 271 266 268 274 261 234 233 230 216 249 254 146 127 179 226 258 226 182 184 193 209 201 190 188 190 189 185 184 185 183 180 178 176 172 166 163 162 166 163 151 141 136 138 142 140 130 116 103 101 96 87 84 85 91 101 99 99 102 85 67 38 15 350 330 321 313 311 307 302 300 299 298 296 296 301
218 207 177 155 173 231 246 239 201 196 218 238 256 269 276 279 261 250 244 225 255 268 112 126 185 225 249 271 178 184 186 197 204 194 188 188 186 184 185 185 184 184 184 182 179 173 171 174 173 168 158 148 147 147 139 121 102 90 81 72 69 75 85 98 122 144 157 168 192 317 329 324 314 303 300 298 295 295 295 293 292 292 291 289 287 284
247 179 169 184 182 190 231 256 234 195 206 235 268 288 280 287 287 273 269 266 271 265 123 148 199 257 254 243 118 167 173 179 199 196 191 188 186 184 184 185 187 188 189 188 185 180 177 178 173 169 167 161 160 160 144 128 120 127 148 330 313 288 169 192 211 236 256 270 289 303 304 301 298 295 291 288 286 284 284 284 283 284 286 286 285 282
273 239 180 186 155 169 210 265 318 316 284 268 296 287 273 280 284 282 288 287 289 303 260 172 194 269 267 118 107 116 112 158 198 195 191 188 186 185 185 188 190 191 193 192 191 188 181 180 178 177 181 182 182 184 191 203 212 230 242 247 251 252 254 262 269 276 281 283 288 290 289 290 292 293 293 290 288 284 283 283 281 280 280 279 280 281
268 268 144 129 102 171 200 242 328 293 277 241 252 254 258 301 301 289 295 301 305 300 283 229 231 268 214 120 124 125 133 174 191 189 188 187 186 186 189 193 194 195 197 195 195 193 187 187 189 191 199 205 208 211 219 227 228 234 240 244 250 254 256 261 265 270 274 275 276 276 277 279 279 281 285 286 286 285 285 285 283 282 279 277 276 275
264 267 122 133 185 170 169 349 209 267 292 197 238 253 11 23 311 284 280 282 278 274 267 242 247 252 182 147 144 148 161 176 186 189 189 188 187 189 194 197 197 199 200 199 199 197 194 197 200 205 212 216 221 226 231 236 238 241 246 249 254 259 261 261 263 264 265 265 266 268 269 270 270 271 275 277 278 280 281 280 279 279 278 275 273 270
279 276 164 172 203 160 123 274 212 235 275 263 264 309 66 347 262 261 269 266 257 265 264 248 253 256 255 222 151 164 177 177 187 190 189 191 191 195 199 199 199 201 201 201 203 201 201 205 210 215 222 226 230 235 240 244 246 246 248 252 258 263 265 266 267 265 263 262 262 263 263 263 264 265 268 271 273 274 274 273 273 274 274 273 272 271
280 276 218 176 199 155 151 232 225 198 227 263 297 350 272 265 247 215 244 268 271 272 271 264 262 258 261 250 154 169 183 178 184 188 190 195 197 201 202 199 200 201 200 202 204 204 204 209 216 221 227 234 236 240 244 246 246 246 249 256 261 264 265 266 267 265 263 261 259 260 260 260 260 262 263 265 268 269 269 269 270 271 272 272 272 273
249 268 259 163 162 155 178 224 237 208 190 224 264 242 229 267 277 259 256 268 273 275 277 276 271 258 256 246 146 148 170 173 181 187 195 201 202 204 203 200 201 201 201 203 203 204 207 213 222 226 230 238 241 242 244 244 245 249 256 263 264 263 263 264 264 264 264 262 261 261 259 258 259 259 261 262 264 266 267 269 271 272 273 274 274 274
239 246 262 217 157 204 231 223 241 246 216 209 232 235 223 225 256 267 265 256 256 266 272 276 271 267 278 112 122 95 116 165 181 191 202 208 206 206 205 202 203 202 200 201 202 206 211 215 224 231 234 241 246 248 249 250 252 255 259 263 262 262 263 265 266 265 266 266 265 263 261 259 259 258 259 261 262 264 266 268 270 271 273 274 274 275
244 241 260 256 224 239 250 60 359 314 298 268 261 262 259 252 254 264 260 247 238 253 264 271 273 273 120 108 126 105 108 147 186 206 216 216 210 209 206 203 204 203 198 197 200 206 209 214 226 235 239 244 249 254 256 257 256 256 257 258 259 261 264 268 269 269 269 269 267 267 265 264 263 262 262 262 262 263 264 265 266 267 269 270 271 273
298 274 263 262 261 261 259 73 25 322 289 272 268 267 269 263 254 256 263 262 248 247 255 264 271 272 124 116 118 123 128 114 168 227 236 229 219 212 206 200 200 199 193 190 193 198 209 222 230 237 242 245 248 251 254 255 253 252 254 257 261 265 268 270 272 272 272 272 271 270 269 268 267 266 265 264 264 263 264 265 266 266 267 268 269 270
152 261 259 262 266 258 223 143 184 227 242 253 250 245 249 251 251 255 268 288 275 252 252 255 260 256 131 119 135 142 149 159 169 200 231 234 224 209 202 197 196 195 188 182 186 194 207 219 225 231 235 237 238 238 238 244 252 257 260 264 269 272 274 275 276 276 276 275 274 273 272 271 270 270 269 267 266 265 265 266 267 267 267 268 269 269
194 250 258 266 273 260 233 213 209 202 219 243 247 234 235 244 250 255 265 277 263 253 257 257 259 261 140 136 187 174 166 189 181 168 206 236 218 200 196 196 197 193 186 184 191 200 207 214 223 232 237 239 242 246 248 254 264 271 273 275 277 278 278 278 278 278 278 278 277 277 275 275 274 273 272 270 270 269 269 269 269 268 267 268 268 268
240 262 258 259 270 266 256 257 269 240 230 237 240 237 236 234 230 232 249 252 246 251 252 245 257 272 217 165 194 204 199 218 204 172 186 220 201 188 187 193 195 190 186 190 194 196 201 212 228 238 245 252 260 266 270 273 276 278 280 280 281 280 280 281 281 282 282 282 282 281 280 280 279 278 277 276 275 275 274 274 273 272 272 271 271 270
253 260 253 254 261 266 272 280 301 310 282 267 261 255 245 234 230 235 247 252 256 265 259 247 256 271 264 243 252 261 245 231 226 213 208 188 170 177 184 188 191 187 183 185 187 188 196 213 235 252 258 265 272 274 277 280 282 284 285 285 284 283 283 285 285 286 286 285 285 284 284 285 284 283 282 281 280 280 279 279 278 277 277 275 274 273
255 256 251 254 257 261 269 275 280 281 275 272 273 270 261 249 240 237 242 251 261 269 263 259 262 269 272 271 276 285 281 246 238 244 225 184 169 179 183 183 185 182 178 180 183 189 204 224 237 252 260 265 271 275 280 284 287 289 289 288 287 286 286 286 287 287 287 287 287 287 287 288 288 287 286 285 285 284 283 282 281 281 279 277 275 273
257 259 256 260 262 260 264 268 272 273 269 265 266 266 264 259 249 244 246 249 250 254 261 270 273 272 274 276 278 286 284 254 254 257 223 191 183 185 183 185 187 184 184 187 187 187 205 231 244 254 262 269 276 282 287 290 292 293 291 289 289 287 287 288 287 288 289 289 289 289 290 290 290 289 287 286 285 283 282 281 280 279 278 276 274 273
259 262 261 266 268 265 265 267 268 268 267 264 261 258 258 257 254 255 256 250 246 251 261 270 273 270 269 274 279 284 265 241 265 254 219 208 201 194 190 193 194 192 192 189 188 199 223 247 264 273 278 283 287 292 295 295 294 293 291 291 290 289 290 290 290 290 291 290 290 290 291 290 289 288 287 286 285 283 283 282 280 279 278 276 274 272
246 260 268 271 272 269 265 267 267 265 264 265 262 257 254 254 255 256 256 250 247 254 261 264 265 266 267 269 273 271 204 229 247 229 223 221 208 198 198 200 198 198 202 197 202 237 268 279 284 289 291 293 296 298 297 294 293 293 292 293 292 292 293 293 292 292 291 291 291 290 290 289 288 288 287 287 287 285 285 284 283 282 280 278 276 273
243 261 271 267 268 269 266 267 267 267 267 265 260 256 253 252 253 252 248 245 246 254 260 260 259 266 270 252 224 194 185 215 224 217 218 214 201 198 204 207 203 200 208 236 276 291 296 296 299 300 300 300 300 298 296 295 295 295 295 296 295 295 296 295 293 292 291 290 291 290 290 290 290 290 290 289 288 287 287 285 283 282 280 278 277 275
256 264 267 263 267 270 269 271 275 275 269 258 254 255 252 248 249 249 245 244 245 248 253 257 262 269 256 164 169 178 186 199 209 211 209 203 198 200 208 210 204 199 225 293 301 304 305 305 306 304 301 299 297 297 298 298 297 296 296 298 298 298 297 295 293 292 292 292 292 293 293 293 292 292 291 290 290 288 287 285 283 282 281 278 277 277
259 259 261 264 268 269 273 278 281 270 257 251 255 257 249 243 244 246 245 243 242 240 244 254 261 249 160 177 195 188 185 193 195 188 185 191 195 196 201 202 191 203 291 302 302 306 308 305 303 299 297 296 296 299 300 298 295 296 298 299 300 299 298 296 295 294 294 295 295 295 296 295 293 292 292 291 290 288 286 285 284 283 281 279 279 277
256 256 258 260 261 267 275 277 267 250 248 263 267 250 245 247 247 249 251 249 246 245 245 251 255 241 196 198 200 180 176 172 167 168 167 172 185 189 191 189 189 270 296 303 305 305 304 301 299 298 297 297 299 300 299 298 299 300 301 301 300 299 298 297 297 297 297 297 297 297 296 295 294 293 292 290 289 288 287 286 285 282 280 279 277 274
248 251 254 256 257 261 263 257 251 250 261 272 259 226 221 243 242 247 254 251 248 250 248 251 257 251 212 179 166 160 156 153 165 181 176 168 171 180 189 194 247 295 298 300 300 299 299 300 299 298 299 300 301 301 301 302 304 303 301 301 300 299 299 298 298 297 297 298 297 297 296 295 295 294 293 292 291 289 288 287 285 282 281 279 276 273
238 245 251 252 245 249 256 254 257 265 269 265 254 224 199 217 223 232 248 250 250 251 249 252 252 229 176 161 156 146 145 164 197 194 174 168 166 168 183 225 265 281 286 288 292 295 297 299 299 300 302 302 301 302 303 303 303 302 301 300 300 299 298 298 297 297 297 296 296 297 297 296 296 295 294 293 292 290 289 288 286 284 282 278 275 272
234 238 247 251 241 241 254 258 262 264 260 260 262 243 212 216 226 232 245 256 254 240 233 242 235 192 164 159 152 144 153 194 220 185 157 156 156 162 190 232 254 271 283 290 296 301 303 305 305 304 303 302 301 302 303 303 302 301 300 299 299 299 298 298 297 296 297 297 297 298 297 296 296 295 293 293 293 292 290 288 287 285 282 281 282 282
240 240 242 250 249 245 249 254 257 258 259 266 266 226 180 189 197 215 243 257 244 202 200 216 204 175 164 157 149 152 175 216 225 150 131 138 151 176 217 252 270 283 294 301 306 309 311 310 305 302 302 302 302 304 304 302 301 300 299 299 300 300 298 297 296 297 297 297 297 297 296 295 294 293 294 294 295 295 294 292 292 292 291 291 292 291
245 244 238 244 249 246 247 253 253 256 268 267 232 169 161 164 160 197 241 259 139 128 167 178 168 160 158 152 150 167 196 230 234 103 116 132 155 185 234 270 290 299 304 307 311 313 311 305 300 302 304 304 304 305 304 303 301 299 299 300 300 298 296 296 297 298 297 296 296 296 296 296 295 296 297 299 299 300 300 298 298 296 293 291 290 287
248 247 239 242 247 245 246 252 256 260 264 242 186 153 145 151 174 215 239 245 93 105 118 135 143 145 147 150 159 178 174 61 54 84 111 130 167 231 264 282 293 299 304 309 312 311 306 302 302 305 306 305 306 307 306 306 304 302 301 300 299 297 296 297 297 297 295 295 295 296 297 298 297 297 299 301 303 303 301 299 298 296 294 292 289 284
255 251 243 240 244 246 248 254 261 263 243 161 140 125 141 175 212 227 192 64 92 111 98 107 126 131 139 154 160 118 80 73 64 69 74 334 289 290 297 301 302 305 308 309 306 303 302 304 305 305 306 307 308 309 309 308 305 303 303 301 300 300 300 299 297 296 296 295 295 297 299 298 295 296 300 305 307 305 303 302 303 301 299 298 293 287
270 267 259 248 245 249 252 251 254 264 72 114 130 143 182 218 252 78 91 59 67 98 104 111 123 132 148 153 126 81 83 100 143 245 296 292 294 302 304 304 306 307 308 305 302 303 307 307 306 307 309 310 311 311 311 310 307 307 307 305 305 306 304 300 298 297 297 297 297 298 298 296 294 299 306 310 308 304 303 306 308 306 303 301 297 293
274 266 266 264 260 256 254 253 252 278 14 37 71 112 76 58 42 32 34 65 82 104 122 121 125 146 164 152 140 168 195 218 240 269 294 299 305 305 299 301 304 303 305 305 304 309 312 307 306 309 310 311 312 313 313 312 310 310 310 308 308 308 304 301 300 300 299 299 299 299 297 295 297 303 309 309 307 305 304 306 309 307 305 303 298 291
269 284 287 283 280 273 268 276 312 276 354 23 38 52 50 58 60 23 17 66 113 147 141 132 147 166 179 192 203 208 217 233 257 287 299 299 297 294 295 302 305 306 307 305 303 307 310 307 307 310 310 312 315 315 314 313 313 312 310 309 309 307 305 305 304 302 302 302 299 297 296 295 298 304 308 309 309 308 303 304 309 308 306 303 297 291
282 296 293 280 287 291 278 240 216 222 288 16 19 25 18 21 51 69 89 155 174 172 169 180 185 184 195 210 216 223 240 256 276 288 291 291 291 295 301 304 305 306 305 303 303 307 308 306 308 310 312 315 317 315 314 314 314 311 309 309 309 308 310 311 308 306 306 304 299 297 295 295 298 305 309 309 312 311 306 307 311 309 305 304 299 296
286 298 288 267 271 283 279 228 190 224 315 323 324 322 304 289 269 222 210 193 179 182 193 202 203 202 208 212 221 241 255 270 283 286 287 292 295 300 304 304 304 306 304 303 304 305 306 308 310 312 315 317 317 317 315 315 313 311 310 309 308 310 313 314 312 310 309 304 299 298 296 296 300 306 309 310 313 313 309 308 311 311 308 306 304 301
307 342 331 292 272 266 261 249 110 122 223 251 245 253 260 245 225 219 219 199 176 187 200 204 204 209 214 216 228 246 258 273 282 282 288 296 299 303 305 304 305 306 302 298 301 304 308 311 312 314 316 316 317 318 316 314 313 313 312 311 310 312 314 313 312 311 308 302 299 298 298 299 303 310 314 315 316 312 305 304 308 309 309 309 309 307
282 306 299 285 284 282 271 242 174 168 196 217 215 216 224 220 209 208 211 203 188 195 206 211 212 217 224 228 234 245 259 272 279 281 289 298 303 305 307 308 308 302 294 297 303 306 308 310 313 316 317 317 318 319 317 316 315 315 315 315 313 314 313 311 311 309 305 302 300 301 304 305 308 314 320 323 321 312 304 303 305 307 310 315 318 317
262 258 253 258 269 271 264 215 267 273 257 213 200 200 202 210 219 221 220 218 217 216 217 221 224 228 234 240 242 247 259 274 284 287 290 299 308 311 311 310 304 293 292 303 308 306 307 311 314 318 319 319 319 320 321 320 317 317 318 318 316 315 312 311 311 306 303 304 305 307 310 309 311 319 325 325 321 313 308 308 309 311 317 321 322 323
249 246 245 247 251 252 250 251 280 288 294 288 263 248 256 264 258 251 243 235 232 230 228 231 234 234 236 240 241 246 260 277 290 296 300 306 311 314 311 303 295 293 302 308 306 306 310 314 318 321 321 320 319 322 325 324 320 321 322 320 317 314 310 310 309 303 303 307 309 310 312 311 314 323 326 324 321 316 312 313 316 323 331 330 326 327
Height
771 780 780 776 774 773 774 773 773 772 773 775 776 775 775 776 772 768 772 771 768 776 781 783 787 790 792 792 791 791 790 789 788 787 787 787 788 789 790 789 788 788 787 784 784 785 786 787 788 789 790 790 791 791 792 792 793 793 794 794 794 795 796 796 797 797 797 797 798 799 799 799 799 800 800 799 799 799 799 799 798 797 797 798 798 797
776 784 777 770 772 773 774 773 772 774 774 774 774 774 772 771 769 768 771 771 769 775 781 784 788 791 792 792 791 791 791 792 791 791 790 789 789 790 790 790 788 787 785 784 784 784 786 787 788 789 790 791 791 792 793 792 793 793 793 794 794 795 796 796 797 797 797 798 798 799 799 799 799 799 799 799 799 799 798 798 797 797 797 796 796 796
783 780 770 768 771 772 774 773 773 774 774 774 772 773 774 767 765 770 771 770 770 773 779 784 787 789 790 789 790 789 790 793 792 792 793 789 788 790 789 788 786 785 785 785 784 784 786 788 789 790 790 791 792 793 794 793 794 794 793 793 794 795 796 797 797 797 798 798 798 799 799 799 799 799 799 799 799 799 798 798 797 796 796 795 795 795
783 773 765 768 770 773 774 773 774 774 771 771 770 773 772 765 770 776 773 772 771 770 775 781 784 785 788 789 789 788 789 792 793 792 792 788 786 787 786 784 784 785 786 786 786 785 787 789 789 790 790 791 793 793 794 794 794 794 793 794 794 795 796 797 797 797 797 798 798 799 799 799 799 799 799 799 799 799 798 797 797 796 795 795 795 794
777 768 766 769 770 772 774 773 773 774 771 766 766 771 770 765 770 774 772 772 771 771 771 778 785 782 782 789 788 786 788 792 793 793 792 790 786 785 784 784 783 785 787 788 788 787 788 789 790 790 791 792 793 794 795 795 795 794 794 794 795 796 797 797 797 797 797 798 799 799 799 799 798 798 798 799 799 799 798 798 797 796 796 795 795 794
772 768 767 771 771 770 774 773 770 772 773 766 762 764 766 767 769 771 773 774 776 776 769 776 791 782 774 783 784 783 788 790 792 792 793 792 788 786 786 787 786 786 788 787 787 788 788 790 791 791 792 793 794 795 796 796 796 796 795 795 796 797 797 798 797 797 797 798 799 799 799 799 798 798 799 799 799 799 799 798 797 796 795 795 794 794
770 768 769 773 772 771 773 771 767 770 774 773 764 760 765 769 770 771 773 777 782 778 765 771 789 786 775 776 777 780 785 786 789 791 791 790 787 785 785 786 787 787 787 788 787 788 789 790 791 791 792 793 795 796 797 797 796 796 796 796 797 798 798 798 797 796 797 798 799 799 800 800 800 799 799 800 800 800 799 799 798 796 795 794 794 793
770 770 772 772 772 772 771 769 768 769 774 774 766 764 768 769 771 771 771 776 775 769 766 766 776 785 777 769 769 776 782 783 785 787 787 787 785 783 783 783 784 785 786 787 787 788 789 790 791 792 793 794 795 796 797 797 797 797 797 798 798 798 798 797 796 796 797 798 799 800 800 800 800 800 800 800 799 800 799 799 798 797 795 794 793 793
767 772 773 772 773 771 767 767 768 769 772 771 766 768 769 768 771 768 769 773 766 770 779 765 767 784 777 766 770 774 779 782 781 781 781 781 781 782 782 782 783 784 784 784 786 788 789 791 792 793 794 794 795 796 797 797 798 798 799 799 798 798 798 797 796 797 797 799 799 800 800 800 800 800 800 799 799 799 799 798 798 797 795 794 793 792
767 771 770 771 773 769 765 766 766 769 771 767 767 768 768 768 769 768 771 770 766 780 784 762 763 781 775 768 774 778 779 777 773 774 775 776 778 779 780 781 782 783 784 784 785 788 790 791 793 793 794 795 795 796 797 798 799 799 799 799 799 798 798 797 797 797 798 799 799 800 800 800 800 799 799 799 799 798 798 797 797 796 795 794 793 792
767 769 769 771 771 767 766 766 765 768 767 765 768 767 766 765 763 767 768 766 777 786 775 757 758 774 776 766 765 770 769 763 763 769 772 773 775 777 778 779 781 781 782 783 784 787 790 791 792 793 794 795 796 796 797 798 799 799 799 799 799 798 798 797 797 798 798 799 800 800 800 800 799 799 799 798 798 797 797 796 796 795 794 793 792 791
768 772 769 767 767 766 768 768 766 767 766 768 768 766 770 767 761 768 767 772 791 785 766 759 757 770 779 762 751 756 755 752 757 763 768 772 772 774 776 777 778 779 780 781 783 786 788 791 792 793 793 794 795 796 797 798 798 798 798 798 798 798 798 798 798 799 799 800 800 800 799 799 799 799 798 798 797 797 796 795 795 794 793 792 791 790
767 767 765 766 768 767 770 770 767 767 767 769 767 767 779 779 775 782 778 776 783 771 761 763 763 772 771 750 743 748 750 751 752 755 762 767 769 772 774 775 775 776 778 779 781 784 787 789 790 791 792 793 794 796 796 797 797 797 798 798 798 798 798 799 799 800 800 800 800 799 799 798 798 798 797 797 796 796 795 794 793 793 792 790 789 788
770 764 763 769 770 765 769 771 769 768 766 768 767 771 783 787 794 801 789 778 774 765 759 760 768 774 760 744 744 746 748 750 750 752 757 761 765 769 770 772 774 774 776 777 779 782 784 786 788 789 791 792 794 795 795 795 796 797 798 798 798 798 799 799 799 799 800 799 798 798 798 797 797 796 796 795 795 794 793 793 792 791 790 789 788 787
784 780 766 768 769 765 767 767 767 767 765 765 764 769 777 779 790 798 787 780 777 767 761 763 774 772 756 751 750 748 751 752 751 753 755 759 763 766 768 770 772 773 774 775 777 779 782 784 787 788 790 792 793 794 795 796 796 797 797 798 798 798 798 799 799 798 798 798 797 797 796 796 796 795 794 794 793 792 791 791 790 789 787 786 785 784
785 780 763 764 766 763 767 765 764 768 770 767 763 769 775 768 773 782 781 781 783 783 775 770 767 754 747 753 750 750 756 754 754 756 756 761 763 765 769 768 770 772 772 774 776 778 780 783 786 788 789 791 792 793 794 795 796 796 797 797 797 798 798 798 798 797 797 796 796 795 795 794 794 793 793 792 791 790 789 788 787 786 785 784 783 781
782 776 763 767 768 763 768 767 764 770 772 770 769 771 768 762 768 780 785 784 790 798 783 765 759 746 743 754 753 754 759 756 758 759 758 762 763 765 768 767 768 770 770 773 774 776 779 782 784 787 788 790 791 792 793 794 795 795 796 796 796 796 796 796 796 796 795 795 794 793 793 792 792 791 791 790 789 788 787 786 785 784 782 781 780 778
779 778 763 764 770 766 767 768 765 766 768 771 774 768 762 765 769 776 791 794 792 795 776 758 761 755 748 756 757 756 758 758 759 759 759 762 763 765 766 765 768 768 770 772 773 775 778 780 783 785 787 788 789 791 792 792 793 794 794 795 795 794 794 794 794 793 793 792 792 791 790 790 789 789 788 787 786 785 784 783 782 781 779 778 777 775
776 783 767 758 766 767 765 770 771 767 765 767 768 763 767 779 778 777 793 799 793 792 779 761 757 755 749 749 751 753 754 756 757 757 760 761 761 763 763 764 767 768 770 772 772 775 777 779 782 783 785 787 788 789 790 790 791 791 792 792 792 792 792 792 791 790 790 789 788 788 787 787 786 785 785 784 783 782 781 780 778 777 776 774 773 772
773 787 781 763 763 768 766 770 773 769 766 767 767 763 766 776 777 774 778 782 785 789 784 771 762 754 743 734 737 745 745 748 754 755 756 757 757 758 760 762 765 766 769 770 771 774 775 778 781 781 784 785 785 787 787 788 789 789 790 790 789 790 789 789 788 787 787 786 785 785 784 783 782 782 781 779 779 778 776 775 774 773 772 770 769 768
772 786 790 772 765 772 770 766 765 762 762 767 770 769 769 770 771 773 770 766 774 784 782 781 775 755 733 727 734 740 741 744 748 750 752 752 752 754 757 759 762 764 767 768 770 772 774 777 779 780 782 783 783 784 785 786 786 786 787 787 787 787 786 785 785 784 783 782 781 780 779 779 778 777 776 775 774 773 771 771 770 769 768 766 765 764
774 781 787 779 771 772 766 759 759 759 759 762 765 765 765 766 769 781 781 763 761 773 772 775 778 755 731 730 734 736 740 742 743 745 747 747 748 751 753 757 760 762 765 767 769 771 773 775 778 779 780 781 782 782 783 783 784 784 784 784 784 784 783 782 781 781 780 778 778 776 775 775 773 772 771 770 769 768 767 766 765 764 763 762 761 760
775 778 783 781 772 764 761 761 763 763 762 763 765 762 762 764 768 781 785 768 761 767 762 767 775 755 733 732 735 737 741 741 742 745 745 745 746 748 750 755 759 761 763 765 768 770 773 775 777 778 779 780 780 780 781 781 781 782 782 782 782 780 780 779 778 777 776 775 774 772 771 770 769 768 767 765 764 763 762 762 760 760 759 757 756 755
778 781 783 781 768 756 755 761 763 763 765 767 765 761 762 764 763 766 769 766 769 770 764 773 778 755 735 736 738 738 740 741 743 744 745 746 746 747 750 754 758 761 762 764 767 769 772 774 776 777 777 778 778 778 779 779 779 780 779 779 779 777 777 776 775 774 773 771 770 768 768 766 765 764 762 761 760 758 758 757 756 755 754 752 751 750
781 781 782 787 784 773 769 770 769 768 769 768 762 758 761 761 761 765 765 769 778 774 766 775 774 749 736 740 740 739 740 740 742 743 745 746 747 749 751 753 757 760 761 763 766 768 770 772 773 773 774 774 775 775 776 777 777 777 777 776 775 774 774 773 772 771 769 768 766 764 764 762 761 760 758 757 756 754 754 753 752 751 749 748 746 744
779 778 778 790 796 792 785 777 769 766 765 764 761 760 761 760 763 769 771 775 780 772 764 769 765 744 736 740 739 738 739 739 740 743 744 746 748 750 752 754 757 759 760 762 764 766 769 770 771 771 772 773 773 774 774 775 775 775 774 773 773 772 770 769 769 767 766 765 763 761 760 758 757 756 754 753 752 750 749 748 747 746 744 743 741 739
775 775 773 780 783 780 775 765 757 758 763 765 764 761 761 760 760 764 771 773 771 768 763 758 753 746 740 738 736 733 734 738 740 741 743 745 748 751 752 754 756 757 759 761 763 766 768 769 770 771 772 773 773 773 774 773 772 772 771 770 770 769 767 766 766 764 763 762 760 758 756 755 753 752 750 749 748 746 745 744 743 741 740 739 737 735
777 777 772 772 772 767 763 758 754 758 763 764 764 761 758 758 758 763 770 767 763 770 767 749 744 748 742 735 734 731 731 736 739 740 742 744 747 750 751 753 755 756 758 760 763 765 767 768 770 770 772 773 773 773 772 771 770 769 768 767 767 766 765 764 763 761 760 758 756 755 753 751 750 748 747 746 744 743 742 740 739 738 736 735 733 730
777 777 769 768 767 761 758 757 756 757 758 758 761 761 757 756 757 760 763 760 761 767 761 745 744 747 739 733 732 730 730 735 738 738 740 743 746 747 749 751 753 754 756 759 761 763 765 767 768 769 771 771 771 770 769 768 767 766 766 765 764 763 762 762 760 758 756 754 753 751 750 749 747 745 744 743 741 740 738 736 735 734 732 730 728 726
777 774 766 766 765 759 757 756 754 756 756 753 754 754 752 752 751 751 752 752 754 755 747 742 745 742 734 731 728 726 730 735 737 739 741 743 745 746 747 749 750 752 754 757 760 762 764 765 766 767 768 768 768 767 766 766 765 764 763 762 761 761 760 759 757 755 753 751 750 749 748 746 744 742 740 738 737 735 733 732 730 728 727 725 723 721
779 776 766 766 769 762 755 754 753 752 752 750 748 745 745 747 746 746 745 745 749 750 743 741 745 737 726 724 724 727 733 736 738 741 741 742 743 744 747 748 749 752 753 755 758 760 762 763 764 764 765 765 765 764 764 763 763 762 761 760 759 758 757 755 754 752 751 749 747 746 744 742 740 737 735 733 732 730 728 727 725 723 722 720 718 716
779 778 768 770 778 767 753 754 753 746 745 747 743 739 741 744 742 739 738 738 743 746 743 743 743 732 722 722 727 732 735 737 739 740 740 741 742 744 747 748 749 752 754 755 757 759 760 761 761 762 762 763 762 762 762 761 760 759 758 757 756 755 753 752 751 750 748 746 744 742 740 738 735 733 731 729 727 725 723 721 719 717 716 715 713 711
777 779 774 774 779 767 753 751 750 749 755 751 736 730 735 736 733 731 730 731 732 736 740 740 732 723 722 726 731 734 735 737 737 737 739 740 742 745 747 748 750 752 754 756 757 758 759 759 760 761 761 761 761 760 760 759 758 757 755 754 753 751 750 749 748 746 744 741 740 737 735 734 731 729 727 725 723 721 719 716 714 711 710 708 707 705
775 777 776 776 780 773 757 751 757 766 763 741 721 719 724 725 725 727 726 724 723 724 726 724 719 720 725 727 729 733 734 734 735 736 738 740 743 746 747 748 751 753 755 757 757 758 758 759 760 761 760 760 759 758 758 757 755 754 752 751 750 748 748 746 744 742 739 737 735 733 732 730 728 725 723 721 719 716 713 710 708 706 704 702 700 699
776 775 774 774 777 773 762 763 776 775 750 723 713 714 714 713 716 719 718 715 714 715 715 714 714 717 723 725 726 729 732 733 735 738 740 742 744 746 748 749 752 754 755 756 757 758 759 759 760 759 759 758 758 757 756 754 752 751 750 749 748 746 745 743 740 738 736 734 732 730 729 727 724 721 719 716 713 710 706 704 701 700 698 695 693 691
770 771 771 770 772 772 769 769 771 755 729 717 717 715 715 716 717 720 722 715 710 710 711 710 709 711 719 725 726 728 732 735 737 739 741 744 745 746 749 750 752 754 756 757 757 758 759 759 758 758 757 757 756 754 753 751 750 749 748 747 746 744 742 740 738 735 733 731 729 727 725 723 720 717 714 711 707 704 701 698 696 694 691 688 686 684
758 762 764 766 768 769 767 760 750 740 730 723 718 714 715 716 715 720 725 717 706 704 706 706 708 713 721 726 728 731 735 738 739 739 739 742 745 747 749 751 753 755 756 757 757 758 758 758 757 756 756 755 754 752 750 750 749 748 747 746 744 742 740 738 735 733 731 728 726 724 721 719 716 713 710 706 702 699 696 693 690 687 684 682 679 675
749 752 754 759 760 759 762 758 751 747 739 722 709 704 704 706 706 710 719 716 703 699 702 705 709 716 723 727 731 734 737 739 737 735 738 742 745 748 750 752 753 754 755 756 756 756 756 756 755 755 755 753 752 751 750 749 749 747 746 744 742 741 739 736 733 731 728 725 723 721 718 716 713 709 705 702 698 694 691 688 684 681 678 675 673 670
743 743 746 752 752 750 755 756 751 745 730 711 704 703 703 705 704 709 721 718 703 699 703 706 711 718 723 728 732 735 737 737 733 733 740 744 745 748 751 751 752 753 754 754 754 754 754 755 754 754 753 751 750 750 750 749 748 746 744 742 741 740 737 734 731 728 726 723 720 718 715 712 709 705 701 697 693 690 686 683 679 676 674 672 669 666
743 742 744 749 747 744 746 745 738 729 716 705 705 707 706 705 707 719 731 725 711 708 709 708 714 721 723 728 733 734 736 736 734 738 744 745 746 749 750 751 752 752 752 753 753 754 754 754 752 751 750 750 750 750 749 747 745 744 742 740 739 737 735 732 728 726 724 720 717 714 711 708 705 701 698 694 690 687 683 679 676 673 670 667 664 661
741 740 742 744 743 740 740 739 732 720 708 703 706 706 706 709 716 724 728 723 718 718 714 714 721 726 727 731 733 733 734 736 738 741 743 744 746 748 748 750 751 751 752 752 753 754 753 752 750 750 750 750 750 748 747 745 743 741 740 738 736 734 732 729 726 724 721 718 714 711 707 705 702 698 694 691 687 683 680 675 671 667 664 660 657 653
740 738 738 740 740 736 733 734 731 718 705 703 709 710 709 714 720 722 721 720 721 720 720 723 728 731 733 734 733 733 735 738 740 742 743 744 746 747 747 749 750 750 751 752 752 752 751 750 750 750 750 749 748 747 745 743 741 739 738 736 734 731 729 727 725 722 719 715 712 708 705 702 699 694 691 687 683 679 674 670 666 661 658 655 651 647
741 742 739 732 731 733 732 731 731 724 712 708 713 715 714 716 721 722 722 724 724 723 726 729 732 735 737 736 736 737 738 740 742 743 743 744 745 746 748 748 749 750 750 750 750 749 749 750 750 749 748 747 746 744 743 742 739 737 735 734 732 730 728 725 722 719 716 713 709 706 703 699 695 691 687 683 679 674 669 664 661 657 653 650 646 643
745 746 743 732 727 731 732 729 729 731 726 721 720 722 723 724 726 726 726 726 728 729 730 731 734 737 738 738 739 740 739 740 741 741 743 744 745 746 748 748 749 750 749 749 749 748 749 750 749 748 747 746 744 743 742 740 738 736 734 733 731 729 726 723 720 717 714 711 707 704 700 696 691 687 684 679 675 670 664 660 657 652 649 646 643 639
741 741 746 742 736 731 729 728 730 732 730 728 727 729 731 731 731 731 730 731 732 733 733 735 737 739 739 739 739 739 738 740 740 741 742 744 745 747 748 748 748 749 748 748 748 749 750 750 748 747 746 744 743 742 741 739 737 735 733 732 729 727 724 721 718 715 712 708 705 701 697 693 688 684 680 675 670 665 660 656 652 648 645 642 638 633
737 739 744 743 739 732 728 729 731 730 730 731 733 734 734 733 733 733 733 733 734 735 735 736 737 737 738 737 736 736 737 738 739 741 742 743 745 746 746 746 747 748 748 747 747 748 749 748 747 745 743 742 742 741 739 738 737 734 732 729 727 724 721 719 716 712 709 706 702 698 694 690 685 680 675 671 666 662 657 652 648 644 640 636 632 627
740 743 743 740 739 738 734 732 733 735 736 736 736 736 736 735 734 733 732 731 732 734 734 734 733 733 734 735 735 736 736 737 739 740 741 743 744 744 744 746 746 747 747 748 748 749 748 746 745 743 742 741 741 739 738 737 735 732 730 727 724 722 719 716 713 710 706 703 699 695 691 687 682 677 672 667 663 658 653 649 645 642 637 632 626 620
747 751 752 747 744 741 737 736 738 741 741 739 736 735 735 734 734 733 731 729 730 731 732 732 732 732 733 734 735 736 736 737 739 740 741 742 742 742 744 745 745 747 748 748 748 748 746 745 744 743 742 741 739 738 737 735 733 730 727 724 722 720 717 714 711 708 704 701 696 692 688 684 680 675 669 664 660 655 650 645 643 639 634 629 623 616
754 757 757 755 752 745 737 736 738 739 739 738 735 732 731 731 732 732 730 729 730 730 730 730 731 732 732 733 734 735 737 737 737 739 741 741 741 742 743 744 746 747 748 747 747 746 745 744 743 742 741 740 738 737 735 733 730 728 725 722 720 718 715 713 709 706 702 698 694 690 687 683 678 673 667 662 658 653 647 643 640 637 631 625 620 613
754 755 753 755 756 748 741 741 742 741 738 735 732 731 730 729 729 729 728 728 729 729 730 731 731 731 732 733 734 735 736 736 736 738 740 740 740 742 744 745 747 747 746 746 745 744 744 743 742 741 740 739 737 735 733 730 728 726 723 721 719 716 714 711 707 704 701 697 693 690 686 682 677 671 667 662 657 651 645 640 637 635 630 624 617 610
746 745 745 749 747 741 738 741 744 744 741 735 731 730 730 729 728 727 726 726 727 727 728 729 730 730 731 732 734 735 735 735 736 737 738 739 740 743 744 746 746 745 745 745 744 743 743 742 741 740 739 737 735 733 731 729 726 724 722 720 717 715 712 709 706 703 699 695 692 689 686 682 676 671 666 662 658 652 646 639 634 632 630 624 615 606